Location: Archemont
(49.1579°N, 1.7598°E)
Time: 10:30:13
(UTC+00:00)

ATLAS 5 CENTAUR R/B - Pass Details

Date: 03 February 2023
Orbit: 460 x 1178 km, 63.3° (Epoch: 24 March)

Event Time Altitude Azimuth Distance (km) Brightness Sun altitude
Rises 20:17:05 0° 317° (NW) 2,869 5.7 -33.5°
Reaches altitude 10° 20:19:40 10° 334° (NNW) 2,076 4.7 -33.9°
Enters shadow 20:20:29 14° 342° (NNW) 1,880 4.3 -34.0°
